Location: Copenhagen
(55.6670°N, 12.5830°E)
Time: 05:24:39
(UTC+02:00)

ACS3 Solar Sail - Pass Details

Date: 27 September 2024
Orbit: 959 x 1034 km, 97.5° (Epoch: 14 October)

Event Time Altitude Azimuth Distance (km) Brightness Sun altitude
Exits shadow 19:37:02 - 127° (SE) 3,520 4.2 -6.8°
Reaches altitude 10° 19:39:01 10° 121° (ESE) 2,835 3.7 -7.1°
Drops below altitude 10° 19:50:25 10° 356° (N) 2,836 4.4 -8.7°
Enters shadow 20:58:29 -48° 166° (SSE) 10,727 7.0 -17.9°
Maximum altitude 21:28:17 65° 260° (W) 1,130 2.2 -21.6°
